Location: Davayat
(45.9471°N, 3.1105°E)
Time: 17:26:43
(UTC+00:00)

Cosmos 1939 Rocket - Pass Details

Date: 01 December 2020
Orbit: 532 x 584 km, 97.4° (Epoch: 18 January)

Event Time Altitude Azimuth Distance (km) Brightness Sun altitude
Rises 17:31:23 0° 156° (SSE) 2,674 6.3 -14.7°
Reaches altitude 10° 17:33:29 10° 152° (SSE) 1,793 5.3 -15.0°
Maximum altitude 17:37:17 57° 74° (ENE) 642 2.8 -15.7°
Drops below altitude 10° 17:41:10 10° 355° (N) 1,832 5.4 -16.3°
Sets 17:43:20 0° 352° (N) 2,739 6.3 -16.7°
